When you browse on this site, cookies collect data to enhance your experience and personalize the content and advertising you see.
Visit our Privacy Policy to learn more. By continuing to use the site, you agree to this use of cookies and data.
  • In Hungary
  • List of Countries
  • For 7 days
  • Water Temperature
  • Weather Map
  • News
  • Weather Widgets
  • user-avatar
    Login

    Hourly Weather Przydarlow

    Today, 7 April, Tuesday

    Time Temperature Precipitation Wind Pressure Humidity
    00:00 +9°C° 0 mm 3 mps 760 mmHg 74%
    01:00 +8°C° 0 mm 4 mps 760 mmHg 77%
    02:00 +9°C° 0 mm 3 mps 760 mmHg 79%
    03:00 +8°C° 0 mm 3 mps 761 mmHg 80%
    04:00 +8°C° 0 mm 3 mps 761 mmHg 82%
    05:00 +8°C° 0 mm 2 mps 761 mmHg 81%
    06:00 +9°C° 0 mm 2 mps 762 mmHg 79%
    07:00 +10°C° 0 mm 2 mps 762 mmHg 75%
    08:00 +11°C° 0 mm 3 mps 763 mmHg 72%
    09:00 +13°C° 0 mm 3 mps 763 mmHg 68%
    10:00 +15°C° 0 mm 4 mps 764 mmHg 65%
    11:00 +15°C° 0 mm 4 mps 764 mmHg 63%
    12:00 +16°C° 0 mm 5 mps 765 mmHg 61%
    13:00 +18°C° 0 mm 4 mps 765 mmHg 57%
    14:00 +17°C° 0 mm 4 mps 765 mmHg 56%
    15:00 +16°C° 0 mm 5 mps 765 mmHg 54%
    16:00 +15°C° 0 mm 5 mps 765 mmHg 53%
    17:00 +13°C° 0 mm 4 mps 765 mmHg 56%
    18:00 +11°C° 0 mm 3 mps 766 mmHg 60%
    19:00 +9°C° 0 mm 3 mps 766 mmHg 64%
    20:00 +8°C° 0 mm 2 mps 766 mmHg 66%
    21:00 +7°C° 0 mm 2 mps 766 mmHg 68%
    22:00 +7°C° 0 mm 2 mps 766 mmHg 70%
    23:00 +6°C° 0 mm 2 mps 767 mmHg 72%

    Tomorrow, 8 April, Wednesday

    Time Temperature Precipitation Wind Pressure Humidity
    00:00 +6°C° 0 mm 2 mps 767 mmHg 74%
    01:00 +5°C° 0 mm 2 mps 767 mmHg 76%
    02:00 +6°C° 0 mm 1 mps 767 mmHg 75%
    03:00 +5°C° 0 mm 1 mps 766 mmHg 75%
    04:00 +5°C° 0 mm 1 mps 766 mmHg 75%
    05:00 +6°C° 0 mm 1 mps 766 mmHg 74%
    06:00 +6°C° 0 mm 2 mps 766 mmHg 72%
    07:00 +6°C° 0 mm 2 mps 766 mmHg 70%
    08:00 +8°C° 0 mm 2 mps 765 mmHg 63%
    09:00 +10°C° 0 mm 2 mps 765 mmHg 57%
    10:00 +14°C° 0 mm 2 mps 765 mmHg 50%
    11:00 +15°C° 0 mm 2 mps 764 mmHg 47%
    12:00 +16°C° 0 mm 2 mps 764 mmHg 45%
    13:00 +18°C° 0 mm 2 mps 763 mmHg 42%
    14:00 +18°C° 0 mm 2 mps 762 mmHg 43%
    15:00 +19°C° 0 mm 2 mps 762 mmHg 45%
    16:00 +20°C° 0 mm 1 mps 761 mmHg 46%
    17:00 +18°C° 0 mm 1 mps 761 mmHg 52%
    18:00 +15°C° 0 mm 1 mps 760 mmHg 59%
    19:00 +13°C° 0 mm 0 mps 760 mmHg 66%
    20:00 +13°C° 0 mm 1 mps 759 mmHg 68%
    21:00 +13°C° 0 mm 1 mps 759 mmHg 71%
    22:00 +12°C° 0 mm 2 mps 759 mmHg 73%
    23:00 +12°C° 0 mm 2 mps 759 mmHg 75%

    Day after tomorrow, 9 April, Thursday

    Time Temperature Precipitation Wind Pressure Humidity
    00:00 +10°C° 0 mm 2 mps 758 mmHg 77%
    01:00 +10°C° 0 mm 2 mps 758 mmHg 78%
    02:00 +9°C° 0 mm 2 mps 758 mmHg 79%
    03:00 +9°C° 0 mm 2 mps 758 mmHg 80%
    04:00 +8°C° 0 mm 2 mps 757 mmHg 81%
    05:00 +9°C° 0.1 mm 3 mps 758 mmHg 83%
    06:00 +9°C° 0.1 mm 3 mps 758 mmHg 84%
    07:00 +10°C° 0.1 mm 3 mps 758 mmHg 85%
    08:00 +10°C° 0 mm 3 mps 758 mmHg 81%
    09:00 +10°C° 0 mm 4 mps 758 mmHg 76%
    10:00 +11°C° 0 mm 4 mps 759 mmHg 71%
    11:00 +12°C° 0 mm 4 mps 759 mmHg 66%
    12:00 +14°C° 0 mm 5 mps 759 mmHg 61%
    13:00 +15°C° 0 mm 5 mps 759 mmHg 56%
    14:00 +14°C° 0.1 mm 5 mps 759 mmHg 60%
    15:00 +13°C° 0.1 mm 6 mps 759 mmHg 64%
    16:00 +13°C° 0.1 mm 6 mps 759 mmHg 67%
    17:00 +10°C° 0 mm 5 mps 759 mmHg 68%
    18:00 +10°C° 0 mm 4 mps 759 mmHg 68%
    19:00 +8°C° 0 mm 3 mps 759 mmHg 69%
    20:00 +7°C° 0 mm 3 mps 760 mmHg 69%
    21:00 +6°C° 0 mm 2 mps 760 mmHg 69%
    22:00 +4°C° 0 mm 2 mps 761 mmHg 69%
    23:00 +4°C° 0 mm 2 mps 761 mmHg 70%

    10 April, Friday

    Time Temperature Precipitation Wind Pressure Humidity
    00:00 +4°C° 0 mm 2 mps 761 mmHg 71%
    01:00 +3°C° 0 mm 2 mps 761 mmHg 72%
    02:00 +3°C° 0 mm 2 mps 761 mmHg 73%
    03:00 +3°C° 0 mm 2 mps 761 mmHg 75%
    04:00 +3°C° 0 mm 2 mps 761 mmHg 76%
    05:00 +3°C° 0 mm 2 mps 761 mmHg 75%
    06:00 +4°C° 0 mm 2 mps 762 mmHg 74%
    07:00 +4°C° 0 mm 2 mps 762 mmHg 72%
    08:00 +6°C° 0 mm 2 mps 762 mmHg 65%
    09:00 +7°C° 0 mm 2 mps 762 mmHg 58%
    10:00 +9°C° 0 mm 2 mps 762 mmHg 51%
    11:00 +10°C° 0 mm 2 mps 762 mmHg 48%
    12:00 +12°C° 0 mm 2 mps 762 mmHg 44%
    13:00 +13°C° 0 mm 2 mps 762 mmHg 41%
    14:00 +13°C° 0 mm 2 mps 761 mmHg 42%
    15:00 +12°C° 0 mm 3 mps 761 mmHg 44%
    16:00 +11°C° 0 mm 3 mps 761 mmHg 45%
    17:00 +10°C° 0 mm 2 mps 760 mmHg 51%
    18:00 +8°C° 0 mm 2 mps 760 mmHg 58%
    19:00 +7°C° 0 mm 2 mps 760 mmHg 64%
    20:00 +6°C° 0 mm 2 mps 760 mmHg 68%
    21:00 +6°C° 0 mm 1 mps 761 mmHg 72%
    22:00 +5°C° 0 mm 1 mps 761 mmHg 76%
    23:00 +5°C° 0 mm 1 mps 761 mmHg 78%

    11 April, Saturday

    Time Temperature Precipitation Wind Pressure Humidity
    00:00 +4°C° 0 mm 1 mps 761 mmHg 79%
    01:00 +3°C° 0 mm 0 mps 761 mmHg 81%
    02:00 +3°C° 0 mm 0 mps 761 mmHg 82%
    03:00 +2°C° 0 mm 0 mps 761 mmHg 83%
    04:00 +2°C° 0 mm 0 mps 761 mmHg 85%
    05:00 +3°C° 0 mm 0 mps 761 mmHg 81%
    06:00 +4°C° 0 mm 0 mps 761 mmHg 78%
    07:00 +5°C° 0 mm 0 mps 761 mmHg 75%
    08:00 +6°C° 0 mm 0 mps 761 mmHg 66%
    09:00 +9°C° 0 mm 1 mps 761 mmHg 57%
    10:00 +11°C° 0 mm 1 mps 761 mmHg 49%
    11:00 +12°C° 0 mm 1 mps 761 mmHg 45%
    12:00 +13°C° 0 mm 1 mps 761 mmHg 41%
    13:00 +14°C° 0 mm 1 mps 760 mmHg 38%
    14:00 +14°C° 0 mm 1 mps 760 mmHg 38%
    15:00 +14°C° 0 mm 1 mps 760 mmHg 39%
    16:00 +14°C° 0 mm 1 mps 759 mmHg 39%
    17:00 +13°C° 0 mm 1 mps 759 mmHg 44%
    18:00 +11°C° 0 mm 1 mps 759 mmHg 48%
    19:00 +10°C° 0 mm 1 mps 759 mmHg 53%
    20:00 +9°C° 0 mm 1 mps 759 mmHg 54%
    21:00 +9°C° 0 mm 1 mps 758 mmHg 54%
    22:00 +8°C° 0 mm 1 mps 758 mmHg 55%
    23:00 +8°C° 0 mm 1 mps 758 mmHg 56%

    12 April, Sunday

    Time Temperature Precipitation Wind Pressure Humidity
    00:00 +7°C° 0 mm 2 mps 758 mmHg 57%
    01:00 +6°C° 0 mm 2 mps 758 mmHg 59%
    02:00 +6°C° 0 mm 2 mps 757 mmHg 62%
    03:00 +6°C° 0 mm 2 mps 756 mmHg 64%
    04:00 +5°C° 0 mm 2 mps 756 mmHg 67%
    05:00 +6°C° 0 mm 2 mps 756 mmHg 68%
    06:00 +7°C° 0 mm 2 mps 755 mmHg 68%
    07:00 +8°C° 0 mm 2 mps 755 mmHg 68%
    08:00 +10°C° 0 mm 2 mps 754 mmHg 63%
    09:00 +13°C° 0 mm 2 mps 754 mmHg 57%
    10:00 +13°C° 0 mm 3 mps 754 mmHg 52%
    11:00 +16°C° 0 mm 3 mps 753 mmHg 48%
    12:00 +17°C° 0 mm 3 mps 752 mmHg 44%
    13:00 +19°C° 0 mm 3 mps 752 mmHg 40%
    14:00 +19°C° 0 mm 3 mps 751 mmHg 41%
    15:00 +19°C° 0 mm 3 mps 750 mmHg 42%
    16:00 +19°C° 0 mm 3 mps 749 mmHg 43%
    17:00 +17°C° 0 mm 3 mps 749 mmHg 48%
    18:00 +16°C° 0 mm 3 mps 748 mmHg 54%
    19:00 +13°C° 0 mm 3 mps 748 mmHg 59%
    20:00 +13°C° 0.1 mm 3 mps 747 mmHg 64%
    21:00 +13°C° 0.1 mm 2 mps 747 mmHg 69%
    22:00 +13°C° 0.1 mm 2 mps 747 mmHg 74%
    23:00 +12°C° 0.1 mm 3 mps 746 mmHg 76%
    Show more